| time (UTC) | temp C | wind direction | speed KPH | gust KPH | rain 1hr cm | rain 24hr cm | rain mn cm | humidity % | barometer mb |
| 20260502162745 | 21 | 72 | 3.2 | 3.2 | 0.00 | 0.00 | 0.00 | 67 | 1007.0 |
| 20260502161745 | 21 | 235 | 0.0 | 0.0 | 0.00 | 0.00 | 0.00 | 61 | 1007.0 |
| 20260502160746 | 22 | 88 | 3.2 | 3.2 | 0.00 | 0.00 | 0.00 | 59 | 1007.0 |
| 20260502151745 | 25 | 232 | 0.0 | 0.0 | 0.00 | 0.00 | 0.00 | 42 | 1007.0 |
| 20260502150745 | 25 | 243 | 1.6 | 1.6 | 0.00 | 0.00 | 0.00 | 41 | 1007.0 |
| 20260502123038 | 24 | 228 | 3.2 | 3.2 | 0.00 | 0.00 | 0.00 | 41 | 1009.0 |
| 20260502122038 | 25 | 228 | 6.4 | 6.4 | 0.00 | 0.00 | 0.00 | 42 | 1009.0 |
| 20260502121038 | 25 | 198 | 3.2 | 3.2 | 0.00 | 0.00 | 0.00 | 40 | 1009.0 |
| 20260502115038 | 25 | 126 | 1.6 | 1.6 | 0.00 | 0.00 | 0.00 | 42 | 1010.0 |
| 20260502114038 | 25 | 204 | 0.0 | 0.0 | 0.00 | 0.00 | 0.00 | 42 | 1010.0 |
| 20260502113038 | 25 | 234 | 3.2 | 3.2 | 0.00 | 0.00 | 0.00 | 40 | 1010.0 |
| 20260502112038 | 24 | 210 | 3.2 | 3.2 | 0.00 | 0.00 | 0.00 | 40 | 1010.0 |
| 20260502111038 | 24 | 270 | 3.2 | 3.2 | 0.00 | 0.00 | 0.00 | 41 | 1010.0 |
| 20260502110038 | 25 | 41 | 3.2 | 3.2 | 0.00 | 0.00 | 0.00 | 39 | 1010.0 |
| 20260502105038 | 24 | 150 | 4.8 | 4.8 | 0.00 | 0.00 | 0.00 | 39 | 1011.0 |
| 20260502104038 | 23 | 276 | 0.0 | 0.0 | 0.00 | 0.00 | 0.00 | 43 | 1011.0 |
| 20260502103038 | 25 | 213 | 3.2 | 3.2 | 0.00 | 0.00 | 0.00 | 39 | 1011.0 |
| 20260502102038 | 24 | 210 | 3.2 | 3.2 | 0.00 | 0.00 | 0.00 | 41 | 1011.0 |
| 20260502101038 | 23 | 216 | 0.0 | 0.0 | 0.00 | 0.00 | 0.00 | 40 | 1011.0 |
| 20260502091038 | 21 | 210 | 3.2 | 3.2 | 0.00 | 0.00 | 0.00 | 41 | 1011.0 |
| 20260502071038 | 18 | 246 | 0.0 | 0.0 | 0.00 | 0.00 | 0.00 | 46 | 1012.0 |
| 20260502070038 | 17 | 279 | 1.6 | 1.6 | 0.00 | 0.00 | 0.00 | 48 | 1012.0 |
| 20260502065038 | 17 | 324 | 0.0 | 0.0 | 0.00 | 0.00 | 0.00 | 49 | 1012.0 |
| 20260502064038 | 16 | 224 | 3.2 | 3.2 | 0.00 | 0.00 | 0.00 | 49 | 1012.0 |
| 20260502063038 | 16 | 214 | 3.2 | 3.2 | 0.00 | 0.00 | 0.00 | 49 | 1012.0 |
| 20260502062038 | 15 | 234 | 3.2 | 3.2 | 0.00 | 0.00 | 0.00 | 48 | 1012.0 |
| 20260502061038 | 15 | 231 | 4.8 | 4.8 | 0.00 | 0.00 | 0.00 | 49 | 1012.0 |
| 20260502060038 | 14 | 258 | 3.2 | 3.2 | 0.00 | 0.00 | 0.00 | 51 | 1012.0 |
| 20260502055038 | 13 | 210 | 3.2 | 3.2 | 0.00 | 0.00 | 0.00 | 55 | 1012.0 |
| 20260502054038 | 13 | 240 | 0.0 | 0.0 | 0.00 | 0.00 | 0.00 | 61 | 1013.0 |
| 20260502053038 | 12 | 204 | 3.2 | 3.2 | 0.00 | 0.00 | 0.00 | 60 | 1012.0 |
| 20260502052038 | 13 | 213 | 3.2 | 3.2 | 0.00 | 0.00 | 0.00 | 57 | 1012.0 |
| 20260502051038 | 13 | 230 | 0.0 | 0.0 | 0.00 | 0.00 | 0.00 | 56 | 1012.0 |
| 20260502050038 | 13 | 204 | 3.2 | 3.2 | 0.00 | 0.00 | 0.00 | 54 | 1012.0 |
| 20260502045038 | 13 | 229 | 3.2 | 3.2 | 0.00 | 0.00 | 0.00 | 52 | 1012.0 |
| 20260502044038 | 14 | 228 | 0.0 | 0.0 | 0.00 | 0.00 | 0.00 | 51 | 1012.0 |
| 20260502043038 | 14 | 204 | 0.0 | 0.0 | 0.00 | 0.00 | 0.00 | 50 | 1012.0 |
| 20260502042038 | 14 | 210 | 3.2 | 3.2 | 0.00 | 0.00 | 0.00 | 49 | 1012.0 |
| 20260502041038 | 14 | 243 | 1.6 | 1.6 | 0.00 | 0.00 | 0.00 | 49 | 1012.0 |
| 20260502040038 | 14 | 236 | 8.0 | 8.0 | 0.00 | 0.00 | 0.00 | 49 | 1012.0 |
| 20260502035038 | 13 | 228 | 3.2 | 3.2 | 0.00 | 0.00 | 0.00 | 51 | 1012.0 |
| 20260502034038 | 13 | 294 | 4.8 | 4.8 | 0.00 | 0.00 | 0.00 | 53 | 1012.0 |
| 20260502033038 | 12 | 212 | 0.0 | 0.0 | 0.00 | 0.00 | 0.00 | 59 | 1012.0 |
| 20260502032038 | 11 | 216 | 0.0 | 0.0 | 0.00 | 0.00 | 0.00 | 61 | 1012.0 |
| 20260502031038 | 12 | 216 | 0.0 | 0.0 | 0.00 | 0.00 | 0.00 | 61 | 1012.0 |
| 20260502030038 | 12 | 216 | 0.0 | 0.0 | 0.00 | 0.00 | 0.00 | 60 | 1012.0 |
| 20260502025038 | 13 | 216 | 0.0 | 0.0 | 0.00 | 0.00 | 0.00 | 57 | 1012.0 |
| 20260502024038 | 13 | 274 | 0.0 | 0.0 | 0.00 | 0.00 | 0.00 | 54 | 1012.0 |
| 20260502023038 | 14 | 222 | 3.2 | 3.2 | 0.00 | 0.00 | 0.00 | 52 | 1012.0 |
| 20260502022038 | 14 | 228 | 0.0 | 0.0 | 0.00 | 0.00 | 0.00 | 53 | 1012.0 |
| 20260502021038 | 14 | 258 | 3.2 | 3.2 | 0.00 | 0.00 | 0.00 | 52 | 1012.0 |
| 20260502020038 | 14 | 240 | 0.0 | 0.0 | 0.00 | 0.00 | 0.00 | 52 | 1012.0 |
| 20260502015038 | 14 | 192 | 1.6 | 1.6 | 0.00 | 0.00 | 0.00 | 51 | 1012.0 |
| 20260502014038 | 15 | 168 | 3.2 | 3.2 | 0.00 | 0.00 | 0.00 | 50 | 1013.0 |
| 20260502013038 | 14 | 237 | 3.2 | 3.2 | 0.00 | 0.00 | 0.00 | 51 | 1013.0 |
| 20260502012038 | 13 | 224 | 0.0 | 0.0 | 0.00 | 0.00 | 0.00 | 52 | 1013.0 |
| 20260502011038 | 13 | 216 | 0.0 | 0.0 | 0.00 | 0.00 | 0.00 | 58 | 1013.0 |
| 20260502010038 | 12 | 242 | 0.0 | 0.0 | 0.00 | 0.00 | 0.00 | 61 | 1013.0 |
| 20260502005038 | 12 | 242 | 0.0 | 0.0 | 0.00 | 0.00 | 0.00 | 62 | 1013.0 |
| 20260502004038 | 12 | 242 | 0.0 | 0.0 | 0.00 | 0.00 | 0.00 | 61 | 1013.0 |
| 20260502003038 | 12 | 242 | 0.0 | 0.0 | 0.00 | 0.00 | 0.00 | 59 | 1013.0 |
| 20260502002038 | 13 | 242 | 0.0 | 0.0 | 0.00 | 0.00 | 0.00 | 54 | 1013.0 |
| 20260502001038 | 12 | 242 | 0.0 | 0.0 | 0.00 | 0.00 | 0.00 | 58 | 1013.0 |
| 20260502000038 | 12 | 242 | 0.0 | 0.0 | 0.00 | 0.00 | 0.00 | 59 | 1013.0 |
| 20260501235038 | 12 | 242 | 0.0 | 0.0 | 0.00 | 0.00 | 0.00 | 59 | 1013.0 |
| 20260501234038 | 12 | 242 | 0.0 | 0.0 | 0.00 | 0.00 | 0.00 | 62 | 1013.0 |
| 20260501233038 | 12 | 242 | 0.0 | 0.0 | 0.00 | 0.00 | 0.00 | 63 | 1014.0 |
| 20260501232038 | 12 | 242 | 0.0 | 0.0 | 0.00 | 0.00 | 0.00 | 61 | 1014.0 |
| 20260501231038 | 14 | 242 | 0.0 | 0.0 | 0.00 | 0.00 | 0.00 | 54 | 1013.0 |
| 20260501230038 | 15 | 242 | 3.2 | 3.2 | 0.00 | 0.00 | 0.00 | 48 | 1014.0 |
| 20260501225038 | 15 | 216 | 0.0 | 0.0 | 0.00 | 0.00 | 0.00 | 48 | 1014.0 |
| 20260501224038 | 16 | 216 | 3.2 | 3.2 | 0.00 | 0.00 | 0.00 | 46 | 1014.0 |
| 20260501223038 | 16 | 216 | 0.0 | 0.0 | 0.00 | 0.00 | 0.00 | 45 | 1014.0 |
| 20260501222038 | 16 | 200 | 0.0 | 0.0 | 0.00 | 0.00 | 0.00 | 43 | 1014.0 |
| 20260501221038 | 16 | 216 | 3.2 | 3.2 | 0.00 | 0.00 | 0.00 | 43 | 1014.0 |
| 20260501220038 | 17 | 254 | 0.0 | 0.0 | 0.00 | 0.00 | 0.00 | 43 | 1014.0 |
| 20260501215038 | 17 | 254 | 1.6 | 1.6 | 0.00 | 0.00 | 0.00 | 41 | 1014.0 |
| 20260501214038 | 17 | 216 | 3.2 | 3.2 | 0.00 | 0.00 | 0.00 | 41 | 1014.0 |
| 20260501213038 | 16 | 230 | 0.0 | 0.0 | 0.00 | 0.00 | 0.00 | 42 | 1014.0 |
| 20260501212038 | 16 | 222 | 0.0 | 0.0 | 0.00 | 0.00 | 0.00 | 43 | 1014.0 |
| 20260501211038 | 15 | 222 | 3.2 | 3.2 | 0.00 | 0.00 | 0.00 | 46 | 1014.0 |
| 20260501210038 | 14 | 222 | 0.0 | 0.0 | 0.00 | 0.00 | 0.00 | 51 | 1014.0 |
| 20260501205038 | 14 | 222 | 0.0 | 0.0 | 0.00 | 0.00 | 0.00 | 51 | 1014.0 |
| 20260501204038 | 15 | 222 | 0.0 | 0.0 | 0.00 | 0.00 | 0.00 | 48 | 1014.0 |
| 20260501203038 | 16 | 222 | 0.0 | 0.0 | 0.00 | 0.00 | 0.00 | 43 | 1014.0 |
| 20260501202038 | 17 | 222 | 0.0 | 0.0 | 0.00 | 0.00 | 0.00 | 40 | 1014.0 |
| 20260501201038 | 17 | 219 | 1.6 | 1.6 | 0.00 | 0.00 | 0.00 | 41 | 1014.0 |
| 20260501200038 | 17 | 219 | 0.0 | 0.0 | 0.00 | 0.00 | 0.00 | 39 | 1014.0 |
| 20260501195038 | 17 | 218 | 0.0 | 0.0 | 0.00 | 0.00 | 0.00 | 41 | 1014.0 |
| 20260501194038 | 16 | 218 | 0.0 | 0.0 | 0.00 | 0.00 | 0.00 | 41 | 1014.0 |
| 20260501193038 | 16 | 218 | 0.0 | 0.0 | 0.00 | 0.00 | 0.00 | 43 | 1014.0 |
| 20260501192038 | 17 | 218 | 0.0 | 0.0 | 0.00 | 0.00 | 0.00 | 42 | 1014.0 |
| 20260501191038 | 17 | 218 | 0.0 | 0.0 | 0.00 | 0.00 | 0.00 | 41 | 1014.0 |
| 20260501190038 | 17 | 218 | 0.0 | 0.0 | 0.00 | 0.00 | 0.00 | 42 | 1014.0 |
| 20260501185038 | 17 | 218 | 0.0 | 0.0 | 0.00 | 0.00 | 0.00 | 43 | 1014.0 |
| 20260501184038 | 17 | 218 | 0.0 | 0.0 | 0.00 | 0.00 | 0.00 | 42 | 1014.0 |
| 20260501183038 | 18 | 218 | 0.0 | 0.0 | 0.00 | 0.00 | 0.00 | 37 | 1014.0 |
| 20260501182038 | 19 | 218 | 0.0 | 0.0 | 0.00 | 0.00 | 0.00 | 34 | 1014.0 |
| 20260501181038 | 20 | 218 | 0.0 | 0.0 | 0.00 | 0.00 | 0.00 | 34 | 1014.0 |
| 20260501180038 | 20 | 218 | 0.0 | 0.0 | 0.00 | 0.00 | 0.00 | 33 | 1014.0 |
| 20260501175038 | 20 | 162 | 0.0 | 0.0 | 0.00 | 0.00 | 0.00 | 33 | 1014.0 |
| 20260501174038 | 21 | 245 | 0.0 | 0.0 | 0.00 | 0.00 | 0.00 | 32 | 1014.0 |
| 20260501173038 | 21 | 196 | 3.2 | 3.2 | 0.00 | 0.00 | 0.00 | 31 | 1014.0 |
| 20260501172038 | 21 | 228 | 3.2 | 3.2 | 0.00 | 0.00 | 0.00 | 30 | 1014.0 |
| 20260501171038 | 21 | 226 | 4.8 | 4.8 | 0.00 | 0.00 | 0.00 | 30 | 1014.0 |
| 20260501170038 | 21 | 307 | 3.2 | 3.2 | 0.00 | 0.00 | 0.00 | 29 | 1014.0 |
| 20260501165038 | 21 | 235 | 3.2 | 3.2 | 0.00 | 0.00 | 0.00 | 28 | 1014.0 |
| 20260501164038 | 22 | 263 | 6.4 | 6.4 | 0.00 | 0.00 | 0.00 | 28 | 1014.0 |